Location: Jaite
(41.2884°N, 81.5737°W)
Time: 11:39:44
(UTC+00:00)

Cosmos 1869 - Pass Details

Date: 15 November 2025
Orbit: 453 x 481 km, 82.5° (Epoch: 10 December)

Event Time Altitude Azimuth Distance (km) Brightness Sun altitude
Exits shadow 10:46:47 30° 325° (NW) 850 3.9 -16.6°
Maximum altitude 10:48:11 50° 266° (W) 585 3.0 -16.3°
Drops below altitude 10° 10:51:33 10° 190° (S) 1,591 5.7 -15.7°
Sets 10:53:39 0° 185° (S) 2,463 6.7 -15.3°
